DW2485 Weather Reports


Display with metric or nautical units.
time (UTC)temp
F
wind
direction
speed
MPH
gust
MPH
rain 1hr
in
rain 24hr
in
rain mn
in
humidity
%
barometer
mb
20260905204005 89 33 12.0 15.0 0.00 0.00 0.00 68 1015.8
20260905203505 89 46 9.0 13.0 0.00 0.00 0.00 68 1015.7
20260905202505 90 51 7.0 12.0 0.00 0.00 0.00 68 1015.7
20260905202005 90 63 7.0 12.0 0.00 0.00 0.00 66 1015.8
20260905201005 90 56 8.0 13.0 0.00 0.00 0.00 68 1015.7
20260905195005 90 25 6.0 10.0 0.00 0.00 0.00 69 1016.3
20260905194505 91 12 10.0 13.0 0.00 0.00 0.00 69 1016.3
20260905194005 89 17 6.0 12.0 0.00 0.00 0.00 70 1016.3
20260905193506 90 28 5.0 12.0 0.00 0.00 0.00 70 1016.5
20260905193005 89 355 5.0 8.0 0.00 0.00 0.00 70 1016.4
20260905191505 91 48 6.0 9.0 0.00 0.00 0.00 68 1016.3
20260905191005 89 25 6.0 10.0 0.00 0.00 0.00 68 1016.4
20260905190505 90 14 5.0 9.0 0.00 0.00 0.00 67 1016.4
20260905190005 90 23 3.0 8.0 0.00 0.00 0.00 67 1016.4
20260905185005 89 36 5.0 9.0 0.00 0.00 0.00 70 1016.4
20260905184505 90 40 6.0 10.0 0.00 0.00 0.00 69 1016.4
20260905183505 90 354 4.0 6.0 0.00 0.00 0.00 68 1016.4
20260905183005 90 51 3.0 7.0 0.00 0.00 0.00 69 1016.5
20260905182005 91 23 4.0 7.0 0.00 0.00 0.00 68 1016.5
20260905181505 90 24 5.0 9.0 0.00 0.00 0.00 69 1016.5
20260905175505 90 35 5.0 9.0 0.00 0.00 0.00 69 1016.4
20260905175005 90 31 5.0 9.0 0.00 0.00 0.00 69 1016.3
20260905174504 90 53 3.0 9.0 0.00 0.00 0.00 67 1016.5
20260905172005 90 40 6.0 10.0 0.00 0.00 0.00 68 1016.4
20260905164504 90 26 7.0 10.0 0.00 0.00 0.00 70 1016.9
20260905163005 90 7 5.0 10.0 0.00 0.00 0.00 69 1016.9
20260905162504 91 52 6.0 10.0 0.00 0.00 0.00 68 1016.7
20260905162005 91 56 8.0 12.0 0.00 0.00 0.00 67 1016.7
20260905161004 91 57 7.0 12.0 0.00 0.00 0.00 68 1016.8
20260905160005 89 32 9.0 12.0 0.00 0.00 0.00 69 1016.6
20260905155005 89 24 5.0 9.0 0.00 0.00 0.00 70 1016.6
20260905153005 88 56 6.0 10.0 0.00 0.00 0.00 70 1016.5
20260905152504 88 29 6.0 9.0 0.00 0.00 0.00 71 1016.5
20260905151005 87 32 6.0 9.0 0.00 0.00 0.00 70 1016.5
20260905150004 87 45 8.0 12.0 0.00 0.00 0.00 69 1016.3
20260905145504 86 63 8.0 12.0 0.00 0.00 0.00 70 1016.4
20260905144004 86 52 3.0 6.0 0.00 0.00 0.00 72 1016.3
20260905142504 84 23 8.0 9.0 0.00 0.00 0.00 75 1016.0
20260905142004 84 22 5.0 8.0 0.00 0.00 0.00 78 1016.0
20260905140504 83 31 5.0 5.0 0.00 0.00 0.00 80 1015.8
20260905135004 81 43 2.0 5.0 0.00 0.00 0.00 82 1015.7
20260905134504 81 41 4.0 6.0 0.00 0.00 0.00 83 1015.7
20260905133505 80 41 4.0 6.0 0.00 0.00 0.00 83 1015.6
20260905133005 80 38 3.0 5.0 0.00 0.00 0.00 85 1015.4
20260905131504 78 53 1.0 2.0 0.00 0.00 0.00 89 1015.4
20260905130504 77 53 2.0 3.0 0.00 0.00 0.00 91 1015.3
20260905130005 77 55 2.0 3.0 0.00 0.00 0.00 91 1015.3
20260905125505 76 32 1.0 3.0 0.00 0.00 0.00 93 1015.3
20260905124504 75 29 2.0 3.0 0.00 0.00 0.00 93 1015.2
20260905123504 75 11 2.0 3.0 0.00 0.00 0.00 94 1015.3
20260905121005 73 60 2.0 3.0 0.00 0.00 0.00 95 1015.2
20260905115504 73 355 2.0 2.0 0.00 0.00 0.00 95 1014.8
20260905114505 72 355 2.0 2.0 0.00 0.00 0.00 95 1014.9
20260905114005 72 355 2.0 3.0 0.00 0.00 0.00 95 1015.0
20260905112504 72 34 1.0 2.0 0.00 0.00 0.00 95 1014.4
20260905112005 72 34 1.0 2.0 0.00 0.00 0.00 95 1014.4
20260905111504 72 34 0.0 0.0 0.00 0.00 0.00 95 1014.3
20260905105505 73 34 1.0 1.0 0.00 0.00 0.00 95 1014.0
20260905105004 72 34 1.0 1.0 0.00 0.00 0.00 95 1014.0
20260905104504 72 34 0.0 1.0 0.00 0.00 0.00 95 1014.1
20260905103504 73 34 0.0 0.0 0.00 0.00 0.00 95 1014.0
20260905103004 73 34 0.0 0.0 0.00 0.00 0.00 95 1014.0
20260905102504 73 34 0.0 2.0 0.00 0.00 0.00 95 1014.0
20260905101505 73 34 1.0 1.0 0.00 0.00 0.00 95 1014.1
20260905101004 73 34 1.0 2.0 0.00 0.00 0.00 95 1014.2
20260905100504 73 34 0.0 0.0 0.00 0.00 0.00 94 1014.2
20260905094504 73 34 1.0 1.0 0.00 0.00 0.00 95 1014.4
20260905094004 73 34 1.0 1.0 0.00 0.00 0.00 94 1014.5
20260905093005 74 34 0.0 0.0 0.00 0.00 0.00 94 1014.5
20260905091504 74 34 0.0 2.0 0.00 0.00 0.00 95 1014.6
20260905090004 74 34 1.0 2.0 0.00 0.00 0.00 94 1014.6
20260905085504 74 34 0.0 2.0 0.00 0.00 0.00 94 1014.6
20260905084504 74 34 1.0 1.0 0.00 0.00 0.00 94 1014.6
20260905084004 74 34 0.0 1.0 0.00 0.00 0.00 94 1014.5
20260905081504 74 34 1.0 1.0 0.00 0.00 0.00 94 1014.7
20260905081004 74 34 1.0 1.0 0.00 0.00 0.00 94 1014.7
20260905080504 74 34 0.0 2.0 0.00 0.00 0.00 94 1014.8
20260905080004 74 34 1.0 1.0 0.00 0.00 0.00 94 1014.8
20260905075005 74 34 1.0 1.0 0.00 0.00 0.00 93 1014.8
20260905073504 75 34 0.0 3.0 0.00 0.00 0.00 93 1014.9
20260905071004 75 31 4.0 7.0 0.00 0.00 0.00 94 1014.8
20260905065004 76 60 0.0 1.0 0.00 0.00 0.00 93 1014.7
20260905064504 76 60 1.0 1.0 0.00 0.00 0.00 93 1014.7
20260905064004 76 60 1.0 2.0 0.00 0.00 0.00 92 1014.6
20260905063504 76 60 0.0 1.0 0.00 0.00 0.00 92 1014.7
20260905063004 76 60 1.0 1.0 0.00 0.00 0.00 92 1014.8
20260905062004 76 60 1.0 2.0 0.00 0.00 0.00 93 1015.0
20260905061503 76 61 2.0 6.0 0.00 0.00 0.00 93 1015.0
20260905060504 75 15 3.0 3.0 0.00 0.00 0.00 92 1015.0
20260905054503 76 131 0.0 2.0 0.00 0.00 0.00 91 1014.8
20260905053504 76 131 0.0 0.0 0.00 0.00 0.00 92 1014.7
20260905052503 76 131 0.0 0.0 0.00 0.00 0.00 91 1014.5
20260905051503 77 131 1.0 2.0 0.00 0.00 0.00 90 1014.5
20260905051004 77 131 1.0 2.0 0.00 0.00 0.00 89 1014.5
20260905050503 77 67 1.0 3.0 0.00 0.00 0.00 89 1014.6
20260905045504 78 92 2.0 3.0 0.00 0.00 0.00 88 1014.7
20260905044504 78 83 2.0 5.0 0.00 0.00 0.00 87 1014.8
20260905044004 79 80 3.0 7.0 0.00 0.00 0.00 87 1014.8
20260905043503 78 49 6.0 9.0 0.00 0.00 0.00 87 1014.8
20260905043005 78 62 5.0 7.0 0.00 0.00 0.00 88 1014.7
20260905042005 78 55 5.0 7.0 0.00 0.00 0.00 88 1014.6
20260905041506 78 71 3.0 5.0 0.00 0.00 0.00 88 1014.6
20260905041006 78 76 3.0 3.0 0.00 0.00 0.00 89 1014.5
20260905040506 78 93 3.0 3.0 0.00 0.00 0.00 88 1014.6
20260905040005 78 88 3.0 3.0 0.00 0.00 0.00 89 1014.7
20260905035005 78 94 2.0 2.0 0.00 0.00 0.00 88 1014.6
20260905034505 78 94 1.0 2.0 0.00 0.00 0.00 88 1014.6
20260905033006 78 86 4.0 6.0 0.00 0.00 0.00 88 1014.5
20260905032505 78 88 3.0 3.0 0.00 0.00 0.00 88 1014.5
20260905031505 78 83 3.0 3.0 0.00 0.00 0.00 88 1014.4
20260905031005 78 72 3.0 3.0 0.00 0.00 0.00 88 1014.4
20260905025506 79 59 2.0 2.0 0.00 0.00 0.00 86 1014.2
20260905025006 79 0 1.0 2.0 0.00 0.00 0.00 86 1014.2
20260905024006 79 13 3.0 7.0 0.00 0.00 0.00 85 1014.0
20260905023505 79 15 5.0 8.0 0.00 0.00 0.00 85 1014.0
20260905022505 80 3 4.0 5.0 0.00 0.00 0.00 85 1013.8
20260905020006 81 218 3.0 6.0 0.00 0.00 0.00 82 1013.0
20260905015505 81 202 4.0 8.0 0.00 0.00 0.00 83 1012.9
20260905015005 81 204 3.0 6.0 0.00 0.00 0.00 83 1012.9
20260905014005 81 207 3.0 7.0 0.00 0.00 0.00 84 1012.9
20260905012006 82 200 3.0 3.0 0.00 0.00 0.00 84 1013.0
20260905011505 82 201 3.0 3.0 0.00 0.00 0.00 82 1013.1
20260905011005 82 249 2.0 2.0 0.00 0.00 0.00 84 1013.4
20260905010506 82 249 0.0 1.0 0.00 0.00 0.00 82 1013.5
20260905005505 83 249 2.0 2.0 0.00 0.00 0.00 83 1013.6
20260905005006 83 249 1.0 2.0 0.00 0.00 0.00 82 1013.6
20260905004505 83 249 0.0 1.0 0.00 0.00 0.00 82 1013.8
20260905004005 84 249 1.0 3.0 0.00 0.00 0.00 82 1013.9
20260905001005 87 283 1.0 2.0 0.00 0.00 0.00 76 1014.0
20260905000505 87 283 1.0 2.0 0.00 0.00 0.00 76 1014.2
20260904235505 87 275 1.0 2.0 0.00 0.00 0.00 75 1014.2
20260904234505 88 216 1.0 2.0 0.00 0.00 0.00 71 1014.1
20260904234006 88 255 1.0 2.0 0.00 0.00 0.00 71 1014.1
20260904233505 88 245 0.0 2.0 0.00 0.00 0.00 71 1014.0
20260904232506 89 245 0.0 1.0 0.00 0.00 0.00 69 1013.9
20260904230005 90 235 2.0 5.0 0.00 0.00 0.00 66 1013.9
20260904225005 91 253 3.0 7.0 0.00 0.00 0.00 64 1014.0
20260904224505 92 237 3.0 5.0 0.00 0.00 0.00 63 1013.9
20260904224005 92 223 4.0 5.0 0.00 0.00 0.00 62 1013.9
20260904223505 92 212 2.0 8.0 0.00 0.00 0.00 63 1013.5
20260904223006 92 207 5.0 7.0 0.00 0.00 0.00 62 1013.4
20260904222505 92 189 6.0 10.0 0.00 0.00 0.00 60 1013.4
20260904221506 93 190 5.0 12.0 0.00 0.00 0.00 60 1013.1
20260904220005 93 196 9.0 13.0 0.00 0.00 0.00 59 1013.2
20260904215005 94 207 7.0 10.0 0.00 0.00 0.00 59 1013.0
20260904214505 94 190 8.0 12.0 0.00 0.00 0.00 58 1013.0
20260904213005 94 192 9.0 14.0 0.00 0.00 0.00 56 1013.1
20260904212505 94 186 10.0 15.0 0.00 0.00 0.00 56 1013.1
20260904212005 95 199 9.0 13.0 0.00 0.00 0.00 59 1013.0
20260904211505 94 177 9.0 14.0 0.00 0.00 0.00 57 1013.0
20260904211005 95 180 10.0 14.0 0.00 0.00 0.00 57 1012.8
20260904205504 95 191 8.0 15.0 0.00 0.00 0.00 57 1012.8